This is the latest recevied weather packets stored in our database for station/object CT2HRB-13. If no packets are shown the sender has not sent any weather packets the latest 10 day(s).
| Time | Temp. | Humidity | Pressure | Rain* | Wind** | Luminosity | Snow |
|---|---|---|---|---|---|---|---|
| 1778179202 | 15.56° C | 61% | 1010.1 hPa | - | - | - | - |
| 1778178901 | 15.56° C | 61% | 1010 hPa | - | - | - | - |
| 1778178602 | 15.56° C | 60% | 1010 hPa | - | - | - | - |
| 1778178301 | 15.56° C | 60% | 1010 hPa | - | - | - | - |
| 1778178002 | 16.11° C | 59% | 1009.8 hPa | - | - | - | - |
| 1778177701 | 16.11° C | 60% | 1009.9 hPa | - | - | - | - |
| 1778177401 | 16.11° C | 61% | 1010 hPa | - | - | - | - |
| 1778177102 | 16.11° C | 60% | 1010 hPa | - | - | - | - |
| 1778176802 | 16.11° C | 62% | 1009.9 hPa | - | - | - | - |
| 1778176501 | 16.11° C | 61% | 1010 hPa | - | - | - | - |
| 1778176202 | 16.11° C | 60% | 1010 hPa | - | - | - | - |
| 1778175902 | 16.11° C | 60% | 1009.8 hPa | - | - | - | - |
| 1778175602 | 16.11° C | 59% | 1009.7 hPa | - | - | - | - |
| 1778175302 | 16.11° C | 59% | 1009.6 hPa | - | - | - | - |
| 1778175002 | 16.67° C | 58% | 1009.7 hPa | - | - | - | - |
| 1778174702 | 16.67° C | 58% | 1009.8 hPa | - | - | - | - |
| 1778174401 | 17.22° C | 57% | 1009.9 hPa | - | - | - | - |
| 1778174101 | 17.22° C | 57% | 1009.8 hPa | - | - | - | - |
| 1778173801 | 16.67° C | 56% | 1009.7 hPa | - | - | - | - |
| 1778173501 | 16.67° C | 55% | 1009.7 hPa | - | - | - | - |
| 1778173201 | 17.22° C | 55% | 1009.6 hPa | - | - | - | - |
| 1778172901 | 17.22° C | 54% | 1009.7 hPa | - | - | - | - |
| 1778172602 | 17.22° C | 52% | 1009.7 hPa | - | - | - | - |
| 1778172302 | 17.78° C | 51% | 1009.6 hPa | - | - | - | - |
| 1778172002 | 17.78° C | 48% | 1009.7 hPa | - | - | - | - |
* Rain since midnight (hover to see other rain measurements)
** Current wind speed in m/s (hover to see current wind gust speed)